[Iaude] MPEC F110: 2024 FJ3 [a=3.02,e=0.58,i=17.3,H=21.4]

mpec at cfa.harvard.edu mpec at cfa.harvard.edu
Sun Mar 31 06:27:43 EDT 2024


M.P.E.C. 2024-F110                               Issued 2024 March 31, 10:26 UT

     The Minor Planet Electronic Circulars contain information on unusual
         minor planets, routine data on comets and natural satellites,
         and occasional editorial announcements.  They are published
    on behalf of Division F of the International Astronomical Union by the
          Minor Planet Center, Smithsonian Astrophysical Observatory,
                          Cambridge, MA 02138, U.S.A.
			  
             Prepared using the Tamkin Foundation Computer Network

                              MPC at CFA.HARVARD.EDU
            URL https://www.minorplanetcenter.net/    ISSN 1523-6714

                                    2024 FJ3                                    


Observations:
     K24F03J* C2024 03 19.44296814 42 53.780+18 55 39.18         21.32GVEF110V00
     K24F03J  C2024 03 19.44858014 42 54.745+18 55 52.03         21.18GVEF110V00
     K24F03J  C2024 03 19.45418614 42 55.714+18 56 04.78         21.44GVEF110V00
     K24F03J  C2024 03 19.45979814 42 56.682+18 56 17.52         21.43GVEF110V00
     K24F03J KC2024 03 19.47874 14 42 59.94 +18 57 00.5          21.3 RVEF110691
     K24F03J KC2024 03 19.48267 14 43 00.58 +18 57 09.0          21.5 RVEF110691
     K24F03J KC2024 03 19.48659 14 43 01.31 +18 57 18.2          21.1 RVEF110691
     K24F03J KC2024 03 19.50194114 43 03.958+18 57 52.31         21.19GVEF110I52
     K24F03J KC2024 03 19.51115014 43 05.556+18 58 13.40         21.10GVEF110I52
     K24F03J KC2024 03 20.31529114 45 31.446+19 28 41.27         21.38GVEF110I52
     K24F03J KC2024 03 20.31958714 45 32.220+19 28 51.38         21.62GVEF110I52
     K24F03J KC2024 03 20.32387214 45 32.958+19 29 01.07         21.29GVEF110I52
     K24F03J KC2024 03 20.32814714 45 33.714+19 29 10.93         21.51GVEF110I52
     K24F03J KC2024 03 21.42712 14 48 51.32 +20 10 58.0          21.7 RVEF110691
     K24F03J KC2024 03 21.43836 14 48 53.26 +20 11 23.6          21.2 RVEF110691
     K24F03J KC2024 03 21.44961 14 48 55.22 +20 11 49.0          22.0 RVEF110691
     K24F03J KC2024 03 31.40152715 19 06.046+26 23 52.37         21.33GVEF110V06
     K24F03J KC2024 03 31.40629115 19 06.859+26 24 02.84         21.33GVEF110V06
     K24F03J KC2024 03 31.41105515 19 07.691+26 24 12.85         21.79GVEF110V06

Observer details:
691 Steward Observatory, Kitt Peak-Spacewatch.  Observer M. T. Read.  0.9-m
    f/3 reflector + CCD.
I52 Steward Observatory, Mt. Lemmon Station.  Observer R. A. Kowalski.
    Measurers T. Beuden, V. F. Carvajal, D. Fay, J. B. Fazekas, D. C. Fuls, A.
    R. Gibbs, A. D. Grauer, H. Groeller, J. K. Hogan, R. A. Kowalski, S. M.
    Larson, G. J. Leonard, D. Rankin, R. L. Seaman, F. C. Shelly, K. W.
    Wierzchos.  1.0-m prime focus + CCD.
V00 Kitt Peak-Bok.  Observers V. F. Carvajal, H. Groeller.  Measurers M. J.
    Brucker, C. E. Woodward, T. Beuden, V. F. Carvajal, D. Fay, J. B. Fazekas,
    D. C. Fuls, A. R. Gibbs, H. Groeller, J. K. Hogan, R. A. Kowalski, S. M.
    Larson, C. Lejoly, G. J. Leonard, R. A. Mastaler, R. S. McMillan, D.
    Rankin, R. L. Seaman, F. C. Shelly, K. W. Wierzchos.  2.25-m reflector +
    4x4K mosaic CCD.
V06 Catalina Sky Survey-Kuiper.  Observers T. Beuden, H. Groeller.  Measurers
    T. Beuden, V. F. Carvajal, D. Fay, J. B. Fazekas, D. C. Fuls, A. R. Gibbs,
    A. D. Grauer, H. Groeller, J. K. Hogan, R. A. Kowalski, S. M. Larson, G.
    J. Leonard, D. Rankin, R. L. Seaman, F. C. Shelly, K. W. Wierzchos.
    1.55-m reflector + 1K CCD.

Orbital elements:
2024 FJ3                                                 Earth MOID = 0.3986 AU
Epoch 2024 Mar. 31.0 TT = JDT 2460400.5                 MPC                     
M 354.16584              (2000.0)            P               Q                  
n   0.18733909     Peri.   73.19705     -0.69128557     +0.70836778             
a   3.0249424      Node   151.39741     -0.72257754     -0.67701659             
e   0.5821376      Incl.   17.33176     -0.00244141     -0.19965876             
P   5.26           H   21.45          G   0.15           U   8                  
Residuals in seconds of arc
240319 V00  0.0   0.1-    240319 I52  0.2+  0.2-    240321 691  0.2+  0.2+
240319 V00  0.1-  0.0     240319 I52  0.2+  0.1+    240321 691  0.3+  0.1-
240319 V00  0.0   0.1+    240320 I52  0.3-  0.1-    240331 V06  0.1+  0.0
240319 V00  0.0   0.1+    240320 I52  0.1+  0.1+    240331 V06  0.1-  0.2+
240319 691  0.1-  0.2+    240320 I52  0.0   0.1-    240331 V06  0.0   0.1-
240319 691  0.7-  0.2-    240320 I52  0.1+  0.0
240319 691  0.1+  0.2+    240321 691  0.3+  0.2+

Ephemeris:
2024 FJ3                 a,e,i = 3.02, 0.58, 17                  q = 1.2640
Date    TT    R. A. (2000) Decl.     Delta      r    Elong.  Phase     V
2024 03 01    13 50 23.2 +08 28 45   0.5629  1.4444   134.9    29.1    22.3
...
2024 03 16    14 32 40.1 +16 46 39   0.4698  1.3714   135.8    30.4    21.8
...
2024 03 24    14 56 37.6 +21 48 51   0.4391  1.3389   133.8    32.5    21.7
...
2024 03 30    15 14 51.0 +25 33 10   0.4239  1.3179   131.4    34.6    21.6
2024 03 31    15 17 52.8 +26 09 27   0.4220  1.3147   130.9    35.0    21.6
2024 04 01    15 20 54.3 +26 45 16   0.4202  1.3116   130.5    35.4    21.6
...
2024 04 07    15 38 47.2 +30 07 58   0.4126  1.2948   127.6    37.8    21.6
...
2024 04 15    16 01 24.4 +33 54 36   0.4094  1.2779   124.0    40.6    21.6
...
2024 04 30    16 37 25.4 +38 11 31   0.4169  1.2641   119.2    44.1    21.8

A. U. Tomatic                (C) Copyright 2024 MPC           M.P.E.C. 2024-F110





More information about the Iaude mailing list